Regional Weather Roundup
Issued by NWS Austin/San Antonio, TX

Home | Current Version | Previous Version | Text Only | Print | Product List | Glossary On
Versions: 1 2 3 4 5 6 7 8 9 10 11 12 13 14 15 16 17 18 19 20 21 22 23 24 25 26 27 28 29 30 31 32 33 34 35 36 37 38 39 40 41 42 43 44 45 46 47 48 49 50
029
ASUS44 KEWX 230510
RWREWX
SOUTH TEXAS REGIONAL WEATHER ROUNDUP
NATIONAL WEATHER SERVICE AUSTIN/SAN ANTONIO TX
1200 AM CDT WED AUG 23 2017

NOTE: "FAIR" INDICATED FEW OR NO CLOUDS BELOW 12,000 FEET WITH NO
SIGNIFICANT WEATHER AND/OR OBSTRUCTIONS TO VISIBILITY.

* - THESE STATIONS ARE NOT NWS OR FAA STATIONS...AND ARE NOT SUBJECT
    TO NWS AND FAA QUALITY CONTROL.

TXZ171-172-183>190-230600-
TEXAS HILL COUNTRY AND EDWARDS PLATEAU

CITY           SKY/WX    TMP DP  RH WIND       PRES   REMARKS
JUNCTION       CLEAR     83  63  50 N3        30.06R
*LLANO         CLEAR     77  66  69 CALM      30.05S
BURNET         CLEAR     81  64  56 S5        30.06R
*HORSESHOE BAY CLEAR     81  65  58 S6        30.02S
*KERRVILLE     CLEAR     79  70  74 S9        30.07R
*FREDERICKSBRG CLEAR     76  63  63 S3        30.07R
*ROCKSPRINGS   NOT AVBL
*BOERNE STAGE  CLEAR     79  66  65 S7        30.07R
*CASTROVILLE   CLEAR     82  66  58 SE5       30.04R
HONDO          CLEAR     83  69  62 SE8       30.03R
*UVALDE        CLEAR     82  67  60 CALM      30.02S
DEL RIO        CLEAR     87  62  43 E7        29.98S
LAUGHLIN AFB   PTCLDY    84  63  48 E8        29.99S
CARRIZO SPRGS  CLEAR     86  66  51 SE8       29.99R
*EAGLE PASS    CLEAR     86  64  48 SE6       29.98S
$$

TXZ173-191>194-202-209-217>225-228-230600-
CENTRAL AND SOUTH CENTRAL TEXAS

CITY           SKY/WX    TMP DP  RH WIND       PRES   REMARKS
GEORGETOWN     CLEAR     86  70  58 S10       30.02S HX  90
AUSTIN/BERGSTM CLEAR     84  70  62 S8        30.01R
AUSTIN/MABRY   CLEAR     85  69  58 VRB5      30.02R
*AUSTIN/EXEC   CLEAR     82  70  65 CALM      30.02R
*LAGO VISTA    CLEAR     84  68  58 S7        30.04S
SAN MARCOS     CLEAR     81  70  69 S6        30.02S
NEW BRAUNFELS  CLEAR     79  69  71 SW5       30.01R
RANDOLPH AFB   CLEAR     78  71  79 S8        30.02S
PT SAN ANTONIO CLEAR     80  70  70 SE6       30.01R
SAN ANTONIO    CLEAR     83  68  60 S12       30.03R
STINSON FIELD  CLEAR     81  69  67 SE3       30.00R
*LA GRANGE     CLEAR     83  74  74 S5        29.99S
*GIDDINGS      CLEAR     82  70  66 S7        30.01S
*GONZALES      CLEAR     81  73  77 S6        30.01S
$$

TXZ163>164-176>182-195>201-210>213-226-227-235-230600-
SOUTHEAST TEXAS

CITY           SKY/WX    TMP DP  RH WIND       PRES   REMARKS
COLLEGE STN    CLEAR     84  70  62 S7        29.99S
*BRYAN         CLEAR     83  69  64 S9        30.00S
*CALDWELL      NOT AVBL
*CROCKETT      CLEAR     77  72  83 CALM      30.03R
*BRENHAM       CLEAR     82  70  65 S3        30.00F
HUNTSVILLE     CLEAR     82  72  71 S6        30.00R
CONROE         CLEAR     78  74  87 CALM      30.00S
HOUSTON BUSH   PTCLDY    83  73  72 SW3       29.99S
HOUSTON HOBBY  PTCLDY    83  74  74 W7        29.99R
*HOUSTON SW AP CLEAR     74  73  95 CALM      30.00R
PEARLAND       CLEAR     82  74  76 CALM      30.00R
HOUSTON HOOKS  CLEAR     81  74  79 S3        30.00R
ELLINGTON FLD  PTCLDY    82  73  74 S3        30.00S
SUGAR LAND     CLEAR     77  74  90 CALM      29.99S
*HOUSTON EXEC  CLEAR     79  73  83 S3        30.01S
*CLEVELAND MUN CLEAR     76  74  94 CALM      30.01R
*WHARTON       CLEAR     74  70  88 CALM      30.01S
*COLUMBUS      FAIR      77  70  77 CALM      30.02R
*EAGLE LAKE    CLEAR     79  75  88 CALM      30.00S
$$

TXZ214>216-236>238-230600-
THE UPPER TEXAS COAST

CITY           SKY/WX    TMP DP  RH WIND       PRES   REMARKS
*ORANGE        CLEAR     78  77  98 CALM      30.01S
PORT ARTHUR    CLEAR     78  76  93 CALM      29.99R
GALVESTON      CLEAR     83  77  82 S9        29.99S HX  92
ANGLETON       CLEAR     77  75  93 CALM      29.99S
*BAY CITY      CLEAR     77  75  92 CALM      29.99R
PALACIOS       CLEAR     80  75  84 S5        29.99R
$$

TXZ229>234-239>247-230600-
TEXAS COASTAL BEND AND RIO GRANDE PLAINS

CITY           SKY/WX    TMP DP  RH WIND       PRES   REMARKS
VICTORIA       CLEAR     79  73  82 S5        30.00R
*BEEVILLE      CLEAR     77  77 100 CALM      30.01R
ROCKPORT       CLEAR     84  75  74 S8        29.99R HX  92
*PORT ARANSAS  CLEAR     83  76  79 SE7       29.98S HX  90
*PORT LAVACA   CLEAR     77  73  85 CALM      30.00R
*INGLESIDE     CLEAR     81  76  84 MISG      29.98S
CORPUS CHRISTI PTCLDY    78  75  90 S6        29.98S
CORPUS NAS     PTCLDY    83  77  82 SE9       29.98S HX  92
*ROBSTOWN      CLEAR     82  75  79 SE5       29.99S
ALICE          CLEAR     79  73  82 CALM      29.99R
KINGSVILLE NAS CLEAR     79  77  94 SE5       29.98S
COTULLA        CLEAR     84  66  54 SE8       30.00R
*FAITH RANCH   CLEAR     88  68  51 SE8G15    29.99S HX  91
LAREDO         CLEAR     85  69  58 SE13      30.00R
$$

TXZ248>255-230600-
DEEP SOUTH TEXAS

CITY           SKY/WX    TMP DP  RH WIND       PRES   REMARKS
BROWNSVILLE    CLEAR     80  77  90 CALM      29.98S
PORT ISABEL    PTCLDY    83  77  82 E8        29.97S HX  92
*SOUTH PADRE   NOT AVBL
HARLINGEN      CLEAR     79  75  87 SE3       29.97S
*HEBBRONVILLE  CLEAR     78  69  73 CALM      30.02S
MCALLEN        CLEAR     83  74  74 SE7       29.99R
*WESLACO       CLEAR     82  74  77 SE3       29.97S
FALFURRIAS     CLEAR     78  73  84 CALM      29.99S
EDINBURG       CLEAR     82  73  76 CALM      29.99S
*ZAPATA        CLEAR     84  67  57 SE5       29.99R
$$

TXZ213>215-236>238-242>244-246-247-251-254-255-230600-
CMAN STATIONS

STATION/POSITION TIME  TEMP    WIND        PRES    WAVE
                       AIR SEA DIR/SP/G            HT/PER
                 (UTC) (F)     (DEG/KT/KT) (MB)    (FT/S)
SABINE PASS      0442   83 90  180/  2/  3 1017.1
SEA RIM ST PARK  0400   84     180/  5/  7 1015.8
NORTH JETTY/GLS  0442      89  160/  8/ 10 1014.9
EAGLE POINT      0442   85 90  190/  8/ 10 1015.5
MORGANS POINT    0442   85 88  190/  4/  6 1015.3
MISSION/ARANSAS  0400          130/ 10     1016.0
PORT O`CONNOR    0448   84     150/ 11/ 12 1014.8
PORT ARANSAS     0400   84 86  120/ 12/ 13 1015.4
MALAQUITE BEACH  0448   83 88  110/  7/  8 1014.6
BAFFIN BAY       0448   83 88              1015.3
PORT ISABEL      0448   83 85              1014.9
$$




USA.gov is the U.S. government's official web portal to all federal, state and local government web resources and services.